Location: Goettingen
(51.5300°N, 9.9433°E)
Time: 11:07:26
(UTC+02:00)

ISS - Pass Details

Date: 13 May 2025
Orbit: 416 x 419 km, 51.6° (Epoch: 18 May)

Event Time Altitude Azimuth Distance (km) Brightness Sun altitude
Rises 00:36:33 0° 276° (W) 2,360 0.3 -19.5°
Reaches altitude 10° 00:38:39 10° 277° (W) 1,496 -0.8 -19.6°
Maximum altitude 00:42:00 88° 194° (SSW) 423 -3.9 -19.7°
Enters shadow 00:42:01 88° 170° (S) 423 -3.9 -19.7°
